Date String (YYYY-MM-DD hh:mm:ss) UTC,Instrument flags,Ambient pressure (hPa),Sample flow (lpm),Bypass flow (lpm),Sample temperature (°C),Ambient temperature (°C),ASC tube jacket temperature (°C),LED temperature (°C),Box temperature (°C),Sample RH (%),Span deviation,Mass concentration (μg/m³),Mass concentration (μg/m³),Mass concentration (μg/m³)
DateTimeUTC,F1_M11,P_M11,Q1_M11,Q2_M11,T1_M11,T2_M11,T3_M11,T4_M11,T5_M11,U1_M11,ZSPAN_M11,X0_M11,X2_M11,X1_M11
2022-12-01 17:00:00,,0818.0,4.98,0.00,23.7,22.6,00.0,32.5,25.5,09.2,0000.0,0007.33,0003.33,0002.52
2022-12-01 17:01:00,,0818.0,5.00,0.00,23.7,22.6,00.0,32.6,25.6,09.0,0000.0,0006.97,0003.25,0002.42
2022-12-01 17:02:00,,0818.0,5.00,0.00,23.8,22.6,00.0,32.6,25.6,08.9,0000.0,0006.21,0003.15,0002.27
2022-12-01 17:03:00,,0818.0,5.01,0.00,23.8,22.6,00.0,32.6,25.6,09.1,0000.0,0005.60,0002.99,0002.16
2022-12-01 17:04:00,,0818.3,4.97,0.00,23.8,22.7,00.0,32.6,25.6,09.4,0000.0,0005.07,0002.80,0002.02
2022-12-01 17:05:00,,0818.3,5.01,0.00,23.8,22.7,00.0,32.6,25.6,11.0,0000.0,0004.82,0002.77,0001.99
2022-12-01 17:06:00,,0818.3,5.01,0.00,23.8,22.6,00.0,32.6,25.5,11.4,0000.0,0006.13,0002.82,0001.99
2022-12-01 17:07:00,,0818.4,5.01,0.00,23.8,22.6,00.0,32.6,25.5,11.2,0000.0,0006.55,0002.80,0001.96
2022-12-01 17:08:00,,0818.2,4.99,0.00,23.8,22.5,00.0,32.6,25.5,10.5,0000.0,0006.62,0002.81,0001.96
2022-12-01 17:09:00,,0818.0,4.99,0.00,23.8,22.6,00.0,32.6,25.5,10.0,0000.0,0006.83,0002.84,0001.97
2022-12-01 17:10:00,,0817.9,5.00,0.00,23.8,22.6,00.0,32.6,25.5,09.7,0000.0,0006.69,0002.82,0001.95
2022-12-01 17:11:00,,0818.0,5.00,0.00,23.8,22.6,00.0,32.6,25.6,09.9,0000.0,0006.84,0002.85,0001.97
2022-12-01 17:12:00,,0818.0,5.00,0.00,23.8,22.7,00.0,32.6,25.6,09.9,0000.0,0006.89,0002.91,0002.04
2022-12-01 17:13:00,,0818.1,4.99,0.00,23.8,22.7,00.0,32.7,25.6,10.3,0000.0,0007.27,0002.96,0002.11
2022-12-01 17:14:00,,0818.2,5.00,0.00,23.9,22.7,00.0,32.7,25.7,10.6,0000.0,0007.53,0003.03,0002.14
2022-12-01 17:15:00,,0818.0,5.01,0.00,23.9,22.7,00.0,32.7,25.7,10.6,0000.0,0007.65,0003.07,0002.16
2022-12-01 17:16:00,,0818.0,5.00,0.00,23.9,22.7,00.0,32.7,25.7,11.0,0000.0,0007.69,0003.04,0002.19
2022-12-01 17:17:00,,0818.0,5.01,0.00,23.9,22.7,00.0,32.7,25.8,11.3,0000.0,0006.82,0002.99,0002.19
2022-12-01 17:18:00,,0818.0,5.01,0.00,23.9,22.7,00.0,32.7,25.8,11.6,0000.0,0006.55,0003.02,0002.25
2022-12-01 17:19:00,,0818.0,4.98,0.00,23.9,22.7,00.0,32.7,25.8,11.6,0000.0,0006.93,0003.14,0002.36
2022-12-01 17:20:00,,0818.1,5.01,0.00,23.9,22.7,00.0,32.7,25.7,11.3,0000.0,0007.30,0003.26,0002.55
2022-12-01 17:21:00,,0818.2,5.00,0.00,23.9,22.7,00.0,32.7,25.8,11.6,0000.0,0008.12,0003.39,0002.76
2022-12-01 17:22:00,,0818.1,5.00,0.00,23.9,22.7,00.0,32.7,25.9,11.7,0000.0,0008.65,0003.59,0003.00
2022-12-01 17:23:00,,0818.0,5.00,0.00,23.9,22.7,00.0,32.7,25.8,12.0,0000.0,0009.87,0003.79,0003.18
2022-12-01 17:24:00,,0818.0,5.00,0.00,23.9,22.7,00.0,32.7,25.7,12.1,0000.0,0010.69,0003.99,0003.32
2022-12-01 17:25:00,,0818.0,4.98,0.00,23.9,22.7,00.0,32.7,25.7,12.0,0000.0,0010.80,0004.16,0003.45
2022-12-01 17:26:00,,0818.0,5.00,0.00,23.9,22.7,00.0,32.7,25.7,12.0,0000.0,0011.61,0004.39,0003.59
2022-12-01 17:27:00,,0817.9,5.01,0.00,23.9,22.7,00.0,32.8,25.7,12.2,0000.0,0011.96,0004.61,0003.71
2022-12-01 17:28:00,,0817.8,5.00,0.00,23.9,22.7,00.0,32.8,25.7,11.6,0000.0,0012.73,0004.75,0003.81
2022-12-01 17:29:00,,0817.9,4.99,0.00,23.9,22.8,00.0,32.8,25.7,10.8,0000.0,0012.89,0004.79,0003.86
2022-12-01 17:30:00,,0817.9,5.01,0.00,23.9,22.8,00.0,32.8,25.8,10.4,0000.0,0012.67,0004.70,0003.82
2022-12-01 17:31:00,,0817.9,5.01,0.00,23.9,22.8,00.0,32.8,25.8,10.1,0000.0,0012.38,0004.59,0003.72
2022-12-01 17:32:00,,0817.8,4.99,0.00,24.0,22.8,00.0,32.8,25.8,09.7,0000.0,0011.38,0004.41,0003.59
2022-12-01 17:33:00,,0817.7,5.00,0.00,24.0,22.9,00.0,32.8,25.9,09.6,0000.0,0010.77,0004.19,0003.44
2022-12-01 17:34:00,,0817.8,5.01,0.00,24.0,22.9,00.0,32.8,25.9,09.8,0000.0,0009.56,0004.00,0003.30
2022-12-01 17:35:00,,0817.8,4.99,0.00,24.0,22.9,00.0,32.8,25.9,09.5,0000.0,0009.12,0003.81,0003.16
2022-12-01 17:36:00,,0817.8,5.00,0.00,24.0,22.9,00.0,32.8,25.9,09.4,0000.0,0008.73,0003.61,0002.92
2022-12-01 17:37:00,,0817.8,5.00,0.00,24.1,23.0,00.0,32.9,25.9,10.1,0000.0,0007.86,0003.38,0002.67
2022-12-01 17:38:00,,0817.7,5.00,0.00,24.1,23.0,00.0,32.9,25.9,09.8,0000.0,0007.46,0003.15,0002.43
2022-12-01 17:39:00,,0817.7,5.00,0.00,24.1,23.0,00.0,32.9,26.0,10.2,0000.0,0006.03,0002.86,0002.19
2022-12-01 17:40:00,,0817.7,5.00,0.00,24.1,23.0,00.0,32.9,26.0,10.2,0000.0,0005.38,0002.69,0002.04
2022-12-01 17:41:00,,0817.8,5.00,0.00,24.1,23.0,00.0,32.9,26.0,10.8,0000.0,0005.21,0002.66,0002.02
2022-12-01 17:42:00,,0817.8,5.00,0.00,24.1,23.1,00.0,32.9,26.0,10.9,0000.0,0006.80,0002.75,0002.08
2022-12-01 17:43:00,,0817.8,4.98,0.00,24.1,23.1,00.0,32.9,26.0,11.3,0000.0,0007.42,0002.99,0002.26
2022-12-01 17:44:00,,0817.7,5.00,0.00,24.2,23.1,00.0,32.9,26.0,11.0,0000.0,0007.63,0003.17,0002.39
2022-12-01 17:45:00,,0817.6,5.00,0.00,24.2,23.1,00.0,33.0,26.0,12.1,0000.0,0007.75,0003.25,0002.52
2022-12-01 17:46:00,,0817.5,5.00,0.00,24.2,23.1,00.0,33.0,26.0,12.2,0000.0,0007.39,0003.34,0002.63
2022-12-01 17:47:00,,0817.6,5.01,0.00,24.2,23.1,00.0,33.0,26.0,12.1,0000.0,0007.57,0003.46,0002.79
2022-12-01 17:48:00,,0817.6,4.99,0.00,24.2,23.1,00.0,33.0,26.0,11.3,0000.0,0008.25,0003.56,0002.93
2022-12-01 17:49:00,,0817.6,5.00,0.00,24.2,23.1,00.0,33.0,26.0,11.5,0000.0,0008.46,0003.68,0003.06
2022-12-01 17:50:00,,0817.6,5.01,0.00,24.2,23.1,00.0,33.0,26.0,11.0,0000.0,0008.67,0003.81,0003.15
2022-12-01 17:51:00,,0817.5,5.01,0.00,24.2,23.1,00.0,33.0,26.0,10.0,0000.0,0008.79,0003.85,0003.16
2022-12-01 17:52:00,,0817.5,5.00,0.00,24.2,23.1,00.0,33.0,26.0,10.9,0000.0,0009.37,0003.87,0003.17
2022-12-01 17:53:00,,0817.5,4.99,0.00,24.2,23.1,00.0,33.1,26.0,11.5,0000.0,0009.45,0003.92,0003.18
2022-12-01 17:54:00,,0817.5,4.99,0.00,24.2,23.1,00.0,33.1,26.1,11.7,0000.0,0009.91,0003.93,0003.17
2022-12-01 17:55:00,,0817.5,5.01,0.00,24.3,23.1,00.0,33.1,26.0,11.6,0000.0,0010.61,0003.97,0003.17
2022-12-01 17:56:00,,0817.5,5.01,0.00,24.3,23.1,00.0,33.1,26.0,11.8,0000.0,0011.16,0004.04,0003.16
2022-12-01 17:57:00,,0817.4,5.00,0.00,24.3,23.1,00.0,33.1,26.1,11.7,0000.0,0011.31,0004.06,0003.15
2022-12-01 17:58:00,,0817.4,5.00,0.00,24.3,23.1,00.0,33.1,26.0,11.5,0000.0,0011.26,0004.03,0003.11
2022-12-01 17:59:00,,0817.3,5.00,0.00,24.3,23.1,00.0,33.1,26.0,11.3,0000.0,0011.08,0004.00,0003.07
